| time (UTC) | temp C | wind direction | speed KPH | gust KPH | rain 1hr cm | rain 24hr cm | rain mn cm | humidity % | barometer mb |
| 20260904233025 | 33 | 84 | 0.0 | 8.0 | 0.00 | 0.00 | 0.00 | 20 | 1001.1 |
| 20260904231521 | 34 | 101 | 0.0 | 11.3 | 0.00 | 0.00 | 0.00 | 18 | 1001.0 |
| 20260904230022 | 35 | 90 | 0.0 | 9.7 | 0.00 | 0.00 | 0.00 | 17 | 1001.0 |
| 20260904224526 | 35 | 91 | 0.0 | 0.0 | 0.00 | 0.00 | 0.00 | 15 | 1001.0 |
| 20260904223019 | 35 | 129 | 0.0 | 0.0 | 0.00 | 0.00 | 0.00 | 15 | 1001.2 |
| 20260904221520 | 34 | 125 | 0.0 | 4.8 | 0.00 | 0.00 | 0.00 | 16 | 1001.2 |
| 20260904220025 | 34 | 74 | 0.0 | 11.3 | 0.00 | 0.00 | 0.00 | 15 | 1001.4 |
| 20260904214521 | 35 | 71 | 0.0 | 14.5 | 0.00 | 0.00 | 0.00 | 16 | 1001.4 |
| 20260904211513 | 33 | 110 | 0.0 | 8.0 | 0.00 | 0.00 | 0.00 | 16 | 1001.7 |
| 20260904210013 | 34 | 122 | 0.0 | 9.7 | 0.00 | 0.00 | 0.00 | 16 | 1001.9 |
| 20260904204512 | 34 | 76 | 3.2 | 12.9 | 0.00 | 0.00 | 0.00 | 16 | 1002.1 |
| 20260904203010 | 33 | 63 | 4.8 | 16.1 | 0.00 | 0.00 | 0.00 | 17 | 1002.2 |
| 20260904201508 | 33 | 123 | 3.2 | 11.3 | 0.00 | 0.00 | 0.00 | 17 | 1002.4 |
| 20260904200007 | 33 | 98 | 3.2 | 14.5 | 0.00 | 0.00 | 0.00 | 18 | 1002.5 |
| 20260904194503 | 33 | 85 | 4.8 | 17.7 | 0.00 | 0.00 | 0.00 | 17 | 1002.7 |
| 20260904193109 | 32 | 28 | 0.0 | 11.3 | 0.00 | 0.00 | 0.00 | 18 | 1002.8 |
| 20260904191600 | 32 | 107 | 1.6 | 19.3 | 0.00 | 0.00 | 0.00 | 18 | 1003.0 |
| 20260904190058 | 32 | 83 | 3.2 | 16.1 | 0.00 | 0.00 | 0.00 | 16 | 1003.1 |
| 20260904184559 | 32 | 69 | 0.0 | 16.1 | 0.00 | 0.00 | 0.00 | 18 | 1003.3 |
| 20260904183113 | 32 | 129 | 1.6 | 16.1 | 0.00 | 0.00 | 0.00 | 18 | 1003.5 |
| 20260904181552 | 31 | 103 | 3.2 | 17.7 | 0.00 | 0.00 | 0.00 | 18 | 1003.8 |
| 20260904180113 | 31 | 61 | 0.0 | 12.9 | 0.00 | 0.00 | 0.00 | 19 | 1003.9 |
| 20260904174556 | 31 | 89 | 1.6 | 12.9 | 0.00 | 0.00 | 0.00 | 21 | 1004.0 |
| 20260904173046 | 31 | 107 | 3.2 | 16.1 | 0.00 | 0.00 | 0.00 | 20 | 1004.1 |
| 20260904171549 | 30 | 70 | 0.0 | 9.7 | 0.00 | 0.00 | 0.00 | 21 | 1004.1 |
| 20260904170048 | 30 | 110 | 0.0 | 11.3 | 0.00 | 0.00 | 0.00 | 23 | 1004.1 |
| 20260904164538 | 29 | 108 | 0.0 | 16.1 | 0.00 | 0.00 | 0.00 | 24 | 1004.1 |
| 20260904163034 | 28 | 104 | 1.6 | 12.9 | 0.00 | 0.00 | 0.00 | 27 | 1004.1 |
| 20260904161533 | 27 | 85 | 0.0 | 4.8 | 0.00 | 0.00 | 0.00 | 30 | 1004.1 |
| 20260904160027 | 27 | 90 | 0.0 | 3.2 | 0.00 | 0.00 | 0.00 | 31 | 1004.2 |
| 20260904154526 | 26 | 119 | 0.0 | 0.0 | 0.00 | 0.00 | 0.00 | 32 | 1004.2 |
| 20260904153018 | 25 | 116 | 0.0 | 0.0 | 0.00 | 0.00 | 0.00 | 31 | 1004.3 |
| 20260904151516 | 23 | 121 | 0.0 | 8.0 | 0.00 | 0.00 | 0.00 | 33 | 1004.2 |
| 20260904150017 | 22 | 124 | 0.0 | 0.0 | 0.00 | 0.00 | 0.00 | 43 | 1004.3 |
| 20260904144506 | 20 | 125 | 0.0 | 0.0 | 0.00 | 0.00 | 0.00 | 46 | 1004.3 |
| 20260904143006 | 17 | 155 | 0.0 | 0.0 | 0.00 | 0.00 | 0.00 | 47 | 1004.4 |
| 20260904141603 | 17 | 155 | 0.0 | 0.0 | 0.00 | 0.00 | 0.00 | 50 | 1004.4 |
| 20260904140002 | 15 | 219 | 0.0 | 0.0 | 0.00 | 0.00 | 0.00 | 58 | 1004.3 |
| 20260904134601 | 13 | 225 | 0.0 | 0.0 | 0.00 | 0.00 | 0.00 | 62 | 1003.9 |
| 20260904133104 | 12 | 225 | 0.0 | 0.0 | 0.00 | 0.00 | 0.00 | 61 | 1003.6 |
| 20260904131555 | 11 | 240 | 0.0 | 0.0 | 0.00 | 0.00 | 0.00 | 62 | 1003.6 |
| 20260904130054 | 11 | 240 | 0.0 | 0.0 | 0.00 | 0.00 | 0.00 | 59 | 1003.6 |
| 20260904124600 | 11 | 240 | 0.0 | 0.0 | 0.00 | 0.00 | 0.00 | 60 | 1003.3 |
| 20260904123051 | 11 | 240 | 0.0 | 0.0 | 0.00 | 0.00 | 0.00 | 61 | 1003.4 |
| 20260904121549 | 11 | 240 | 0.0 | 0.0 | 0.00 | 0.00 | 0.00 | 60 | 1003.2 |
| 20260904120054 | 12 | 240 | 0.0 | 0.0 | 0.00 | 0.00 | 0.00 | 60 | 1003.0 |
| 20260904114547 | 12 | 240 | 0.0 | 0.0 | 0.00 | 0.00 | 0.00 | 59 | 1003.0 |
| 20260904113043 | 12 | 240 | 0.0 | 0.0 | 0.00 | 0.00 | 0.00 | 59 | 1002.9 |
| 20260904111541 | 12 | 240 | 0.0 | 0.0 | 0.00 | 0.00 | 0.00 | 60 | 1002.9 |
| 20260904110042 | 13 | 240 | 0.0 | 0.0 | 0.00 | 0.00 | 0.00 | 55 | 1002.7 |
| 20260904104535 | 13 | 240 | 0.0 | 0.0 | 0.00 | 0.00 | 0.00 | 57 | 1002.2 |
| 20260904103035 | 13 | 234 | 0.0 | 0.0 | 0.00 | 0.00 | 0.00 | 55 | 1002.3 |
| 20260904101531 | 14 | 234 | 0.0 | 0.0 | 0.00 | 0.00 | 0.00 | 54 | 1002.2 |
| 20260904100028 | 14 | 234 | 0.0 | 0.0 | 0.00 | 0.00 | 0.00 | 53 | 1002.2 |
| 20260904094538 | 15 | 234 | 0.0 | 0.0 | 0.00 | 0.00 | 0.00 | 53 | 1001.9 |
| 20260904093025 | 15 | 234 | 0.0 | 0.0 | 0.00 | 0.00 | 0.00 | 52 | 1001.9 |
| 20260904091532 | 15 | 213 | 0.0 | 0.0 | 0.00 | 0.00 | 0.00 | 52 | 1001.8 |
| 20260904090021 | 15 | 213 | 0.0 | 0.0 | 0.00 | 0.00 | 0.00 | 54 | 1001.7 |
| 20260904084519 | 15 | 213 | 0.0 | 0.0 | 0.00 | 0.00 | 0.00 | 49 | 1001.7 |
| 20260904083016 | 16 | 213 | 0.0 | 0.0 | 0.00 | 0.00 | 0.00 | 48 | 1001.6 |
| 20260904081515 | 16 | 213 | 0.0 | 0.0 | 0.00 | 0.00 | 0.00 | 48 | 1001.6 |
| 20260904074510 | 16 | 213 | 0.0 | 0.0 | 0.00 | 0.00 | 0.00 | 47 | 1001.3 |
| 20260904073008 | 17 | 213 | 0.0 | 0.0 | 0.00 | 0.00 | 0.00 | 46 | 1001.5 |
| 20260904071506 | 17 | 213 | 0.0 | 0.0 | 0.00 | 0.00 | 0.00 | 47 | 1001.5 |
| 20260904070004 | 17 | 213 | 0.0 | 0.0 | 0.00 | 0.00 | 0.00 | 46 | 1001.7 |
| 20260904064625 | 17 | 138 | 0.0 | 0.0 | 0.00 | 0.00 | 0.00 | 48 | 1001.7 |
| 20260904063113 | 18 | 169 | 0.0 | 0.0 | 0.00 | 0.00 | 0.00 | 46 | 1002.0 |
| 20260904061553 | 18 | 169 | 0.0 | 0.0 | 0.00 | 0.00 | 0.00 | 46 | 1002.1 |
| 20260904060105 | 19 | 109 | 0.0 | 0.0 | 0.00 | 0.00 | 0.00 | 43 | 1002.2 |
| 20260904054552 | 19 | 109 | 0.0 | 4.8 | 0.00 | 0.00 | 0.00 | 41 | 1002.2 |
| 20260904053048 | 20 | 252 | 0.0 | 0.0 | 0.00 | 0.00 | 0.00 | 40 | 1001.7 |
| 20260904051547 | 21 | 252 | 0.0 | 0.0 | 0.00 | 0.00 | 0.00 | 37 | 1001.5 |
| 20260904050050 | 21 | 252 | 0.0 | 0.0 | 0.00 | 0.00 | 0.00 | 35 | 1001.4 |
| 20260904044546 | 22 | 252 | 0.0 | 1.6 | 0.00 | 0.00 | 0.00 | 34 | 1001.4 |
| 20260904043046 | 22 | 252 | 0.0 | 0.0 | 0.00 | 0.00 | 0.00 | 33 | 1001.5 |
| 20260904041545 | 23 | 252 | 0.0 | 0.0 | 0.00 | 0.00 | 0.00 | 33 | 1001.5 |
| 20260904040047 | 23 | 252 | 0.0 | 0.0 | 0.00 | 0.00 | 0.00 | 32 | 1001.4 |
| 20260904034547 | 23 | 298 | 0.0 | 14.5 | 0.00 | 0.00 | 0.00 | 32 | 1001.3 |
| 20260904033043 | 23 | 318 | 0.0 | 6.4 | 0.00 | 0.00 | 0.00 | 32 | 1001.0 |
| 20260904031543 | 24 | 277 | 0.0 | 6.4 | 0.00 | 0.00 | 0.00 | 32 | 1001.1 |
| 20260904030043 | 24 | 327 | 0.0 | 8.0 | 0.00 | 0.00 | 0.00 | 32 | 1001.0 |
| 20260904024543 | 24 | 317 | 0.0 | 8.0 | 0.00 | 0.00 | 0.00 | 32 | 1000.8 |
| 20260904023044 | 24 | 317 | 0.0 | 6.4 | 0.00 | 0.00 | 0.00 | 31 | 1000.8 |
| 20260904021551 | 25 | 302 | 0.0 | 3.2 | 0.00 | 0.00 | 0.00 | 31 | 1000.6 |
| 20260904020042 | 25 | 337 | 0.0 | 1.6 | 0.00 | 0.00 | 0.00 | 29 | 1000.4 |
| 20260904013103 | 27 | 5 | 0.0 | 0.0 | 0.00 | 0.00 | 0.00 | 28 | 1000.4 |
| 20260904011539 | 28 | 21 | 0.0 | 0.0 | 0.00 | 0.00 | 0.00 | 26 | 1000.4 |
| 20260904010039 | 29 | 50 | 0.0 | 0.0 | 0.00 | 0.00 | 0.00 | 24 | 1000.4 |
| 20260904004538 | 30 | 50 | 0.0 | 6.4 | 0.00 | 0.00 | 0.00 | 23 | 1000.4 |
| 20260904003038 | 30 | 54 | 0.0 | 12.9 | 0.00 | 0.00 | 0.00 | 21 | 1000.4 |
| 20260904001554 | 31 | 55 | 0.0 | 6.4 | 0.00 | 0.00 | 0.00 | 21 | 1000.3 |
| 20260904000036 | 32 | 55 | 1.6 | 16.1 | 0.00 | 0.00 | 0.00 | 20 | 1000.3 |
| 20260903234536 | 32 | 36 | 0.0 | 8.0 | 0.00 | 0.00 | 0.00 | 19 | 1000.3 |